Retour au catalogue

FENGYUN 1C DEB

ActifPO
NORAD 33638·DEBRIS·🇨🇳 China

Lancé May 10, 1999 depuis Taiyuan Satellite Launch Center

Loading…

Prochains Passages (prochaines 24 heures)

TLE

VieillissantSource: Space-Track

Époque: Sep 5, 2026, 21:07 UTC

1 33638U 99025DDX 26248.88001309  .00000400  00000-0  39278-3 0  9995
2 33638  98.4437 112.4955 0262290 279.6776  77.4839 13.69903915645720

Suivez FENGYUN 1C DEB en temps réel avec AllMySat

Download on the App Store